Location: Bailey Inglish Elementary School
(33.5826°N, 96.1780°W)
Time: 18:50:19
(UTC+00:00)

ACS3 Solar Sail - Visible Passes

Search period start: 23 June 2024 00:00
Search period end: 03 July 2024 00:00
Orbit: 992 x 1024 km, 97.4° (Epoch: 23 June)

Date Brightness Start Highest point End Pass type
(mag) Time Alt. Az. Time Alt. Az. Time Alt. Az.
23 Jun 6.6 02:32:03 10° E 02:35:30 16° ENE 02:38:56 10° NNE visible
23 Jun 4.9 04:17:01 46° SSW 04:18:54 70° W 04:25:07 10° NNW visible
24 Jun 5.8 03:06:29 21° ESE 03:09:30 31° ENE 03:14:49 10° N visible
24 Jun 5.9 04:51:49 30° SW 04:53:26 34° W 04:59:02 10° NNW visible
25 Jun 4.9 03:41:17 37° SE 03:43:41 62° ENE 03:49:47 10° N visible
25 Jun 6.8 05:26:37 15° WSW 05:28:08 16° W 05:31:54 10° NW visible
26 Jun 6.5 02:31:03 10° E 02:34:37 16° ENE 02:38:11 10° NNE visible
26 Jun 5.0 04:16:04 44° SSW 04:18:03 68° W 04:24:15 10° NNW visible
27 Jun 5.8 03:05:31 21° ESE 03:08:37 32° ENE 03:14:00 10° N visible
27 Jun 6.0 04:50:52 29° SW 04:52:35 33° W 04:58:07 10° NNW visible
28 Jun 4.9 03:40:20 37° SE 03:42:49 64° ENE 03:48:56 10° N visible
28 Jun 6.8 05:25:40 14° WSW 05:27:18 16° W 05:30:54 10° NW visible
29 Jun 6.5 02:30:01 10° ESE 02:33:44 17° ENE 02:37:26 10° NNE visible
29 Jun 5.0 04:15:07 42° SSW 04:17:11 65° W 04:23:22 10° NNW visible
30 Jun 5.7 03:04:35 21° ESE 03:07:45 33° ENE 03:13:11 10° N visible
30 Jun 6.1 04:49:56 27° SW 04:51:44 32° W 04:57:13 10° NNW visible
01 Jul 4.9 03:39:23 36° SE 03:41:57 66° ENE 03:48:06 10° N visible
01 Jul 6.9 05:24:44 14° WSW 05:26:28 15° W 05:29:53 10° WNW visible
02 Jul 6.5 02:29:01 10° ESE 02:32:50 17° ENE 02:36:40 10° NNE visible
02 Jul 5.1 04:14:12 41° SSW 04:16:20 63° W 04:22:29 10° NNW visible
